Home > Weather > Khartoum > Past weeks

Flag for Sudan Past Weather in Khartoum, Sudan — Yesterday and Last 2 Weeks

Now
86 °F

Clear.


Feels Like: 83 °F
Forecast: 74 / 105 °F
Wind: 16 mph from North

Location: Khartoum Airport

Current Time: May 29, 2016 at 5:10:45 AM

Latest Report: May 29, 2016 at 4:30 AM


Visibility: 10 mi

Pressure: 29.86 "Hg

Humidity: 12%

Dew Point: 28 °F

Location of KhartoumLocation

Past Weather in Khartoum — Graph

°F

Khartoum Temperature Yesterday

Maximum temperature yesterday: 104 °F (at 4:00 PM)
Minimum temperature yesterday: 82 °F (at 3:00 AM)
Average temperature yesterday: 93 °F

High & Low Weather Summary for the Past Weeks

 TemperatureHumidityPressure
High113 °F (May 23, 3:00 PM)48% (May 22, 6:30 AM)29.92 "Hg (May 22, 6:30 AM)
Low77 °F (May 27, 7:00 AM)3% (May 26, 1:00 PM)29.53 "Hg (May 20, 8:00 PM)
Average97 °F17%29.81 "Hg
* Reported May 14 4:00 AM — May 29 4:00 AM, Khartoum, Weather by CustomWeather, © 2016

Note: Actual official high and low records may vary slightly from our data, if they occured in-between our weather recording intervals... More about our weather records

Advertising

Khartoum Weather History for the Previous 24 Hours

Scroll right to see more
 ConditionsComfort  
Time TempWeatherWind HumidityBarometerVisibility
4:00 AM
Sun, May 29
86 °FClear.17 mph12%29.86 "Hg10 mi
2:00 AM88 °FClear.16 mph11%29.86 "Hg10 mi
1:30 AM90 °FClear.14 mph10%29.86 "Hg10 mi
1:00 AM90 °FClear.14 mph10%29.86 "Hg10 mi
12:00 AM91 °FClear.12 mph10%29.86 "Hg10 mi
11:00 PM
Sat, May 28
93 °FClear.15 mph8%29.89 "Hg10 mi
10:30 PM93 °FClear.8 mph8%29.89 "Hg10 mi
10:00 PM95 °FClear.8 mph10%29.86 "Hg10 mi
9:30 PM95 °FClear.8 mph6%29.86 "Hg10 mi
8:30 PM97 °FClear.8 mph8%29.86 "Hg10 mi
8:00 PM97 °FClear.8 mph8%29.83 "Hg10 mi
7:30 PM99 °FClear.8 mph7%29.83 "Hg10 mi
7:00 PM100 °FSunny.8 mph8%29.83 "Hg10 mi
6:30 PM100 °FSunny.12 mph5%29.80 "Hg10 mi
6:00 PM100 °FSunny.16 mph5%29.80 "Hg10 mi
5:30 PM102 °FSunny.8 mph6%29.80 "Hg10 mi
5:00 PM102 °FSunny.8 mph6%29.80 "Hg10 mi
4:30 PM104 °FSunny.15 mph6%29.77 "Hg10 mi
4:00 PM104 °FSunny.8 mph6%29.80 "Hg10 mi
3:30 PM102 °FSunny.9 mph6%29.80 "Hg10 mi
3:00 PM102 °FSunny.6 mph6%29.83 "Hg10 mi
2:30 PM102 °FSunny.5 mph6%29.83 "Hg10 mi
2:00 PM102 °FSunny.13 mph6%29.83 "Hg10 mi
1:30 PM100 °FSunny.5 mph6%29.86 "Hg10 mi
1:00 PM99 °FSunny.8 mph7%29.89 "Hg10 mi
12:30 PM99 °FSunny.13 mph7%29.89 "Hg10 mi
12:00 PM99 °FSunny.17 mph7%29.92 "Hg10 mi
11:30 AM97 °FSunny.N/A9%29.92 "Hg10 mi
11:00 AM95 °FSunny.16 mph9%29.92 "Hg10 mi
10:30 AM93 °FSunny.16 mph10%29.92 "Hg10 mi
10:00 AM91 °FSunny.13 mph10%29.92 "Hg10 mi
9:30 AM90 °FSunny.15 mph11%29.92 "Hg10 mi
9:00 AM86 °FSunny.15 mph13%29.89 "Hg10 mi
8:00 AM84 °FSunny.16 mph11%29.89 "Hg10 mi
7:30 AM82 °FSunny.12 mph14%29.89 "Hg10 mi
7:00 AM82 °FSunny.12 mph14%29.89 "Hg10 mi
6:30 AM82 °FSunny.12 mph11%29.86 "Hg10 mi
6:00 AM82 °FClear.12 mph11%29.86 "Hg10 mi
5:30 AM84 °FClear.9 mph11%29.83 "Hg10 mi
5:00 AM84 °FClear.13 mph11%29.83 "Hg10 mi
Weather by CustomWeather, © 2016

See weather overviewHow to use our weather pages